CPA123 VTSP-WMKP

Flight info

Callsign CPA123
Flight time 0h 44m
Altitude 28000
Route REBE1A NUTGU DALAN KAPKO OMBO1E
Aircraft B738/L-V/N

Departure

Time 2026-04-28 11:10
Airport Phuket International Airport (VTSP)

Arrival

Time 2026-04-28 11:55
Airport Penang International Airport (WMKP)
Time Latitude Longitude Altitude Speed Heading
2026-04-28 11:01 8.10837 98.30539 35 ft 0 kts 104°
2026-04-28 11:02 8.10839 98.30533 35 ft 2 kts 104°
2026-04-28 11:02 8.10840 98.30526 34 ft 2 kts 104°
2026-04-28 11:02 8.10843 98.30518 34 ft 1 kts 104°
2026-04-28 11:02 8.10845 98.30508 34 ft 2 kts 101°
2026-04-28 11:03 8.10846 98.30493 34 ft 2 kts 85°
2026-04-28 11:03 8.10844 98.30478 33 ft 2 kts 73°
2026-04-28 11:03 8.10838 98.30464 33 ft 2 kts 61°
2026-04-28 11:03 8.10829 98.30451 33 ft 2 kts 49°
2026-04-28 11:04 8.10818 98.30441 33 ft 2 kts 36°
2026-04-28 11:04 8.10805 98.30433 33 ft 2 kts 23°
2026-04-28 11:04 8.10796 98.30430 33 ft 0 kts 15°
2026-04-28 11:04 8.10791 98.30428 32 ft 0 kts 13°
2026-04-28 11:08 8.10878 98.30450 33 ft 22 kts 15°
2026-04-28 11:08 8.10945 98.30467 33 ft 2 kts 11°
2026-04-28 11:08 8.11019 98.30466 33 ft 5 kts 323°
2026-04-28 11:09 8.11038 98.30428 32 ft 17 kts 280°
2026-04-28 11:09 8.11052 98.30370 30 ft 8 kts 302°
2026-04-28 11:09 8.11140 98.30341 28 ft 1 kts 359°
2026-04-28 11:09 8.11193 98.30379 28 ft 22 kts 68°
2026-04-28 11:10 8.11233 98.30758 36 ft 96 kts 84°
2026-04-28 11:10 8.11327 98.31707 144 ft 164 kts 85°
2026-04-28 11:10 8.11302 98.32817 1145 ft 153 kts 100°
2026-04-28 11:10 8.11238 98.33824 1889 ft 155 kts 85°
2026-04-28 11:11 8.11411 98.35040 2255 ft 183 kts 76°
2026-04-28 11:11 8.11698 98.36419 2590 ft 213 kts 79°
2026-04-28 11:11 8.11897 98.37972 3018 ft 234 kts 83°
2026-04-28 11:11 8.12067 98.39693 3408 ft 258 kts 84°
2026-04-28 11:12 8.12246 98.41563 4078 ft 275 kts 84°
2026-04-28 11:12 8.12435 98.43564 4947 ft 283 kts 84°
2026-04-28 11:12 8.12624 98.45565 5868 ft 288 kts 84°
2026-04-28 11:12 8.12814 98.47596 6779 ft 292 kts 84°
2026-04-28 11:13 8.13005 98.49625 7654 ft 296 kts 83°
2026-04-28 11:13 8.13200 98.51697 8516 ft 299 kts 83°
2026-04-28 11:13 8.13398 98.53800 9361 ft 303 kts 83°
2026-04-28 11:13 8.13595 98.55930 10138 ft 309 kts 85°
2026-04-28 11:14 8.13312 98.58141 10471 ft 330 kts 114°
2026-04-28 11:14 8.11889 98.59991 11181 ft 334 kts 143°
2026-04-28 11:14 8.09817 98.61106 11911 ft 335 kts 163°
2026-04-28 11:14 8.07477 98.61450 12632 ft 336 kts 181°
2026-04-28 11:15 8.05063 98.61513 13388 ft 339 kts 179°
2026-04-28 11:15 8.02663 98.61597 14103 ft 341 kts 180°
2026-04-28 11:15 8.00207 98.61684 14819 ft 344 kts 180°
2026-04-28 11:15 7.97782 98.61770 15505 ft 347 kts 180°
2026-04-28 11:16 7.95338 98.61857 16178 ft 349 kts 180°
2026-04-28 11:16 7.92889 98.61945 16824 ft 352 kts 180°
2026-04-28 11:16 7.90431 98.62033 17429 ft 355 kts 180°
2026-04-28 11:16 7.87966 98.62121 18013 ft 358 kts 179°
2026-04-28 11:17 7.85440 98.62212 18613 ft 360 kts 179°
2026-04-28 11:17 7.82925 98.62302 19194 ft 362 kts 179°
2026-04-28 11:17 7.80404 98.62392 19756 ft 365 kts 179°
2026-04-28 11:17 7.77843 98.62484 20308 ft 367 kts 179°
2026-04-28 11:18 7.75261 98.62761 20830 ft 372 kts 169°
2026-04-28 11:18 7.72725 98.63599 21358 ft 376 kts 158°
2026-04-28 11:18 7.70325 98.64838 21871 ft 379 kts 150°
2026-04-28 11:18 7.68117 98.66382 22353 ft 383 kts 143°
2026-04-28 11:19 7.66001 98.68082 22829 ft 385 kts 143°
2026-04-28 11:19 7.63904 98.69797 23289 ft 387 kts 142°
2026-04-28 11:19 7.61815 98.71510 23736 ft 389 kts 142°
2026-04-28 11:19 7.59668 98.73271 24178 ft 391 kts 142°
2026-04-28 11:20 7.57510 98.75043 24607 ft 393 kts 142°
2026-04-28 11:20 7.55361 98.76808 25018 ft 395 kts 142°
2026-04-28 11:20 7.53219 98.78568 25420 ft 396 kts 142°
2026-04-28 11:20 7.51079 98.80326 25801 ft 398 kts 142°
2026-04-28 11:21 7.48876 98.82136 26182 ft 400 kts 142°
2026-04-28 11:21 7.46658 98.83958 26545 ft 402 kts 142°
2026-04-28 11:21 7.44476 98.85748 26903 ft 404 kts 142°
2026-04-28 11:21 7.42259 98.87564 27247 ft 405 kts 142°
2026-04-28 11:22 7.40059 98.89366 27582 ft 407 kts 142°
2026-04-28 11:22 7.37867 98.91159 27809 ft 404 kts 142°
2026-04-28 11:22 7.35677 98.92950 27821 ft 406 kts 142°
2026-04-28 11:22 7.33476 98.94750 27815 ft 408 kts 142°
2026-04-28 11:23 7.31240 98.96577 27807 ft 410 kts 142°
2026-04-28 11:23 7.29027 98.98386 27799 ft 412 kts 142°
2026-04-28 11:23 7.26756 99.00243 27792 ft 414 kts 142°
2026-04-28 11:23 7.24471 99.02110 27787 ft 415 kts 142°
2026-04-28 11:24 7.22196 99.03970 27782 ft 416 kts 142°
2026-04-28 11:24 7.19891 99.05854 27778 ft 417 kts 142°
2026-04-28 11:24 7.17621 99.07709 27777 ft 418 kts 142°
2026-04-28 11:24 7.15367 99.09552 27776 ft 418 kts 142°
2026-04-28 11:25 7.13040 99.11443 27775 ft 419 kts 139°
2026-04-28 11:25 7.10738 99.13328 27777 ft 420 kts 139°
2026-04-28 11:25 7.08450 99.15202 27778 ft 421 kts 139°
2026-04-28 11:25 7.06114 99.17114 27777 ft 422 kts 139°
2026-04-28 11:26 7.03829 99.18984 27777 ft 423 kts 139°
2026-04-28 11:26 7.01544 99.20856 27780 ft 423 kts 142°
2026-04-28 11:26 6.99268 99.22727 27775 ft 422 kts 142°
2026-04-28 11:26 6.96968 99.24605 27775 ft 422 kts 142°
2026-04-28 11:27 6.94649 99.26498 27774 ft 422 kts 142°
2026-04-28 11:27 6.92385 99.28350 27755 ft 410 kts 143°
2026-04-28 11:27 6.90193 99.30145 27768 ft 398 kts 143°
2026-04-28 11:27 6.88060 99.31888 27778 ft 396 kts 143°
2026-04-28 11:28 6.85939 99.33621 27779 ft 395 kts 143°
2026-04-28 11:28 6.83787 99.35381 27779 ft 395 kts 143°
2026-04-28 11:28 6.81645 99.37131 27779 ft 395 kts 143°
2026-04-28 11:28 6.79536 99.38856 27779 ft 395 kts 143°
2026-04-28 11:29 6.77405 99.40597 27779 ft 395 kts 143°
2026-04-28 11:29 6.75297 99.42323 27636 ft 386 kts 143°
2026-04-28 11:29 6.73134 99.44094 26618 ft 387 kts 143°
2026-04-28 11:29 6.71024 99.45821 25665 ft 387 kts 143°
2026-04-28 11:30 6.68956 99.47513 24806 ft 384 kts 143°
2026-04-28 11:30 6.64776 99.50934 23118 ft 378 kts 144°
2026-04-28 11:30 6.62722 99.52615 22278 ft 375 kts 144°
2026-04-28 11:31 6.60729 99.54245 21482 ft 372 kts 144°
2026-04-28 11:31 6.58671 99.55927 20826 ft 375 kts 144°
2026-04-28 11:31 6.56661 99.57571 20789 ft 370 kts 144°
2026-04-28 11:31 6.54628 99.59234 20780 ft 370 kts 144°
2026-04-28 11:32 6.52632 99.60867 20780 ft 370 kts 144°
2026-04-28 11:32 6.50638 99.62498 20779 ft 370 kts 144°
2026-04-28 11:32 6.48648 99.64125 20666 ft 373 kts 144°
2026-04-28 11:32 6.46600 99.65801 20317 ft 369 kts 144°
2026-04-28 11:33 6.44599 99.67391 19991 ft 367 kts 145°
2026-04-28 11:33 6.42575 99.68972 19661 ft 366 kts 145°
2026-04-28 11:33 6.40555 99.70550 19311 ft 366 kts 145°
2026-04-28 11:33 6.38558 99.72112 18958 ft 364 kts 145°
2026-04-28 11:34 6.36561 99.73677 18604 ft 363 kts 145°
2026-04-28 11:34 6.34438 99.75097 18241 ft 359 kts 155°
2026-04-28 11:34 6.32167 99.76224 17891 ft 357 kts 158°
2026-04-28 11:34 6.29814 99.77319 17521 ft 355 kts 159°
2026-04-28 11:35 6.27513 99.78384 17158 ft 355 kts 158°
2026-04-28 11:35 6.25286 99.79439 16806 ft 354 kts 158°
2026-04-28 11:35 6.23055 99.80506 16450 ft 353 kts 158°
2026-04-28 11:35 6.20787 99.81593 16088 ft 352 kts 158°
2026-04-28 11:36 6.18539 99.82671 15728 ft 351 kts 157°
2026-04-28 11:36 6.16264 99.83762 15363 ft 349 kts 157°
2026-04-28 11:36 6.13982 99.84856 14996 ft 348 kts 157°
2026-04-28 11:36 6.11763 99.85921 14639 ft 347 kts 157°
2026-04-28 11:37 6.09542 99.86986 14280 ft 346 kts 157°
2026-04-28 11:37 6.07287 99.88068 13915 ft 345 kts 157°
2026-04-28 11:37 6.05074 99.89129 13556 ft 344 kts 157°
2026-04-28 11:37 6.02858 99.90192 13195 ft 343 kts 157°
2026-04-28 11:38 6.00697 99.91228 12843 ft 342 kts 157°
2026-04-28 11:38 5.98544 99.92260 12491 ft 341 kts 156°
2026-04-28 11:38 5.96379 99.93298 12136 ft 340 kts 156°
2026-04-28 11:38 5.94235 99.94326 11784 ft 338 kts 156°
2026-04-28 11:39 5.92138 99.95332 11438 ft 336 kts 156°
2026-04-28 11:39 5.90000 99.96358 11082 ft 333 kts 156°
2026-04-28 11:39 5.87920 99.97356 10731 ft 332 kts 156°
2026-04-28 11:39 5.85851 99.98347 10384 ft 330 kts 156°
2026-04-28 11:40 5.83791 99.99335 10100 ft 327 kts 157°
2026-04-28 11:40 5.81729 100.00324 9823 ft 326 kts 157°
2026-04-28 11:40 5.79649 100.01321 9542 ft 325 kts 156°
2026-04-28 11:40 5.77580 100.02312 9261 ft 324 kts 156°
2026-04-28 11:41 5.75533 100.03291 9010 ft 325 kts 156°
2026-04-28 11:41 5.73471 100.04209 8747 ft 320 kts 163°
2026-04-28 11:41 5.71325 100.04672 8511 ft 315 kts 175°
2026-04-28 11:41 5.69074 100.04928 8256 ft 316 kts 177°
2026-04-28 11:42 5.66876 100.05122 7999 ft 313 kts 178°
2026-04-28 11:42 5.64766 100.05318 7733 ft 300 kts 177°
2026-04-28 11:42 5.62703 100.05527 7476 ft 294 kts 176°
2026-04-28 11:42 5.60618 100.05743 7222 ft 293 kts 176°
2026-04-28 11:43 5.58532 100.05963 6961 ft 290 kts 176°
2026-04-28 11:43 5.56443 100.06184 6699 ft 288 kts 176°
2026-04-28 11:43 5.54408 100.06398 6444 ft 287 kts 176°
2026-04-28 11:43 5.52453 100.06606 6193 ft 283 kts 176°
2026-04-28 11:44 5.50402 100.06821 5930 ft 283 kts 176°
2026-04-28 11:44 5.48390 100.07035 5662 ft 275 kts 176°
2026-04-28 11:44 5.46430 100.07243 5401 ft 270 kts 176°
2026-04-28 11:44 5.44482 100.07395 5136 ft 268 kts 184°
2026-04-28 11:45 5.42625 100.07156 4897 ft 268 kts 192°
2026-04-28 11:45 5.40763 100.06814 4639 ft 264 kts 193°
2026-04-28 11:45 5.38950 100.06449 4380 ft 259 kts 193°
2026-04-28 11:45 5.37107 100.06107 4124 ft 261 kts 192°
2026-04-28 11:46 5.35303 100.05786 3863 ft 255 kts 192°
2026-04-28 11:46 5.33517 100.05474 3609 ft 253 kts 191°
2026-04-28 11:46 5.31752 100.05168 3338 ft 249 kts 192°
2026-04-28 11:46 5.30057 100.04873 3090 ft 249 kts 192°
2026-04-28 11:47 5.28337 100.04574 2821 ft 242 kts 191°
2026-04-28 11:47 5.26677 100.04287 2557 ft 233 kts 191°
2026-04-28 11:47 5.25031 100.04001 2320 ft 235 kts 191°
2026-04-28 11:47 5.23481 100.03733 2297 ft 218 kts 191°
2026-04-28 11:48 5.22027 100.03482 2298 ft 209 kts 191°
2026-04-28 11:48 5.20525 100.03419 2309 ft 220 kts 173°
2026-04-28 11:48 5.19083 100.03873 2312 ft 217 kts 153°
2026-04-28 11:48 5.17879 100.04787 2308 ft 219 kts 133°
2026-04-28 11:49 5.17041 100.06071 2304 ft 215 kts 114°
2026-04-28 11:49 5.16531 100.07481 2293 ft 206 kts 105°
2026-04-28 11:49 5.16181 100.08871 2302 ft 205 kts 107°
2026-04-28 11:49 5.15705 100.10223 2302 ft 201 kts 111°
2026-04-28 11:50 5.15187 100.11510 2295 ft 194 kts 111°
2026-04-28 11:50 5.14963 100.12826 2308 ft 191 kts 82°
2026-04-28 11:50 5.15307 100.14164 2311 ft 195 kts 66°
2026-04-28 11:50 5.16017 100.15294 2305 ft 190 kts 44°
2026-04-28 11:51 5.17005 100.16219 2310 ft 193 kts 40°
2026-04-28 11:51 5.17972 100.17074 2299 ft 180 kts 39°
2026-04-28 11:51 5.18926 100.17916 2307 ft 177 kts 40°
2026-04-28 11:51 5.19820 100.18716 2312 ft 171 kts 41°
2026-04-28 11:52 5.20723 100.19536 2151 ft 170 kts 40°
2026-04-28 11:52 5.21587 100.20319 1916 ft 166 kts 40°
2026-04-28 11:52 5.22481 100.21125 1689 ft 166 kts 40°
2026-04-28 11:52 5.23330 100.21896 1472 ft 166 kts 40°
2026-04-28 11:53 5.24178 100.22665 1243 ft 162 kts 40°
2026-04-28 11:53 5.25019 100.23425 1023 ft 163 kts 40°
2026-04-28 11:53 5.25870 100.24195 802 ft 166 kts 42°
2026-04-28 11:53 5.26721 100.24972 574 ft 160 kts 40°
2026-04-28 11:54 5.27537 100.25716 379 ft 151 kts 40°
2026-04-28 11:54 5.28307 100.26408 167 ft 147 kts 40°
2026-04-28 11:54 5.29053 100.27080 21 ft 138 kts 41°
2026-04-28 11:54 5.29683 100.27652 21 ft 97 kts 41°
2026-04-28 11:55 5.30086 100.28014 21 ft 45 kts 32°
2026-04-28 11:55 5.30165 100.28013 21 ft 10 kts 320°
2026-04-28 11:55 5.30225 100.27934 21 ft 14 kts 276°
2026-04-28 11:55 5.30178 100.27857 22 ft 12 kts 223°
2026-04-28 11:56 5.30111 100.27792 22 ft 15 kts 225°
2026-04-28 11:56 5.30016 100.27696 23 ft 20 kts 223°
2026-04-28 11:56 5.29906 100.27599 23 ft 21 kts 222°
2026-04-28 11:56 5.29791 100.27493 22 ft 22 kts 222°
2026-04-28 11:57 5.29670 100.27384 21 ft 23 kts 221°
2026-04-28 11:57 5.29545 100.27270 21 ft 24 kts 221°
2026-04-28 11:57 5.29416 100.27153 21 ft 25 kts 221°
2026-04-28 11:57 5.29347 100.27048 22 ft 17 kts 291°
2026-04-28 11:58 5.29399 100.26946 24 ft 16 kts 267°
2026-04-28 11:58 5.29330 100.26863 24 ft 16 kts 221°
2026-04-28 11:58 5.29333 100.26799 25 ft 8 kts 309°
2026-04-28 11:58 5.29353 100.26776 26 ft 1 kts 311°
2026-04-28 11:59 5.29353 100.26775 26 ft 0 kts 311°